カタログに戻る

ARIANE 1 DEB

運用中PO
NORAD 35517·DEBRIS·🇫🇷 France

打ち上げ Feb 22, 1986 から Guiana Space Centre

Loading…

次のパス (今後24時間)

TLE

最新Source: Space-Track

元期: Sep 14, 2026, 04:10 UTC

1 35517U 86019VQ  26257.17371612  .00000102  00000-0  99856-4 0  9999
2 35517  98.8966  28.2565 0380782  39.1298 323.6739 13.67685952155070

AllMySatでARIANE 1 DEBをリアルタイム追跡

Download on the App Store